Weather History for Guatemala Aeropuertola Aurora, Guatemala

Change the Weather History Date:

Wednesday, October 16, 2013

  Actual Average Record
Temperature  
Mean Temperature 70 °F -  
Max Temperature 77 °F 71 °F - ()
Min Temperature 63 °F 57 °F - ()
Cooling Degree Days 5    
Growing Degree Days 20 (Base 50)    
Moisture  
Dew Point 63 °F    
Average Humidity 81    
Maximum Humidity 94    
Minimum Humidity 61    
Precipitation  
Precipitation 0.00 in - - ()
Sea Level Pressure  
Sea Level Pressure 30.24 in    
Wind  
Wind Speed 8 mph ()    
Max Wind Speed 14 mph    
Max Gust Speed -    
Visibility 6.1 miles    
Events Rain    
T = Trace of Precipitation, MM = Missing Value Source: Averaged Metar Reports

Daily Weather History Graph

Daily Weather History Graph

Search for Another Location

Airport:

Trip Planner

Search our weather history database for the weather conditions in past years. The results will help you decide how hot, cold, wet, or windy it might be!

Date:

Astronomy

Oct. 16, 2013 Rise Set
Actual Time 5:53 AM CST 5:41 PM CST
Civil Twilight 5:32 AM CST 6:02 PM CST
Nautical Twilight 5:07 AM CST 6:27 PM CST
Astronomical Twilight 4:42 AM CST 6:52 PM CST
Moon 4:05 PM CST (10/16) 3:42 AM CST (10/16)
Length of Visible Light 12h 30m
Length of Day
11h 47m
Waxing Gibbous, 94% of the Moon is Illuminated
Oct 16
Waxing Gibbous
Oct 18
Full
Oct 26
Last Quarter
Nov 3
New
Nov 9
First Quarter

Hourly Weather History & Observations

Time (CST) Temp. Dew Point Humidity Pressure Visibility Wind Dir Wind Speed Gust Speed Precip Events Conditions
12:00 AM 64.4 °F 62.6 °F 94% 30.27 in 6.2 mi North 9.2 mph - N/A   Overcast
1:00 AM 64.4 °F 62.6 °F 94% 30.24 in 6.2 mi North 9.2 mph - N/A   Overcast
2:00 AM 64.4 °F 62.6 °F 94% 30.21 in 6.2 mi North 9.2 mph - N/A   Overcast
3:00 AM 64.4 °F 62.6 °F 94% 30.21 in 6.2 mi NNE 6.9 mph - N/A   Mostly Cloudy
4:00 AM 64.4 °F 62.6 °F 94% 30.24 in 6.2 mi NNE 6.9 mph - N/A   Overcast
5:00 AM 64.4 °F 62.6 °F 94% 30.24 in 6.2 mi North 6.9 mph - N/A   Mostly Cloudy
6:00 AM 64 °F 62 °F 89% 29.97 in 25 mi North 9.2 mph - -   Overcast
6:00 AM 64.4 °F 60.8 °F 88% 30.27 in 6.2 mi North 9.2 mph - N/A   Scattered Clouds
7:00 AM 64.4 °F 62.6 °F 94% 30.27 in 6.2 mi North 6.9 mph - N/A   Scattered Clouds
8:00 AM 66.2 °F 60.8 °F 83% 30.30 in 6.2 mi North 13.8 mph - N/A   Scattered Clouds
9:00 AM 69.8 °F 60.8 °F 73% 30.30 in 6.2 mi North 13.8 mph - N/A   Scattered Clouds
10:00 AM 73.4 °F 60.8 °F 65% 30.30 in 6.2 mi North 13.8 mph - N/A   Scattered Clouds
11:00 AM 75.2 °F 62.6 °F 65% 30.27 in 6.2 mi North 11.5 mph - N/A   Scattered Clouds
12:00 PM 77.0 °F 62.6 °F 61% 30.27 in 6.2 mi North 11.5 mph - N/A   Partly Cloudy
1:00 PM 77.0 °F 64.4 °F 65% 30.24 in 6.2 mi North 11.5 mph - N/A   Partly Cloudy
2:00 PM 75.2 °F 60.8 °F 61% 30.21 in 6.2 mi NE 9.2 mph - N/A   Mostly Cloudy
3:00 PM 75.2 °F 62.6 °F 65% 30.18 in 6.2 mi SSW 6.9 mph - N/A   Mostly Cloudy
4:00 PM 75.2 °F 64.4 °F 69% 30.18 in 6.2 mi South 6.9 mph - N/A   Partly Cloudy
5:00 PM 71.6 °F 64.4 °F 78% 30.21 in 5.0 mi South 9.2 mph - N/A Rain Rain
6:00 PM 68.0 °F 64.4 °F 88% 30.21 in 6.2 mi South 4.6 mph - N/A   Scattered Clouds
7:00 PM 68.0 °F 64.4 °F 88% 30.24 in 6.2 mi Calm Calm - N/A   Mostly Cloudy
8:00 PM 68.0 °F 62.6 °F 83% 30.27 in 6.2 mi North 6.9 mph - N/A   Mostly Cloudy
9:00 PM 68.0 °F 62.6 °F 83% 30.30 in 6.2 mi North 6.9 mph - N/A   Mostly Cloudy
10:00 PM 68.0 °F 62.6 °F 83% 30.30 in 6.2 mi NNE 9.2 mph - N/A   Mostly Cloudy
11:00 PM 66.2 °F 62.6 °F 88% 30.27 in 6.2 mi North 6.9 mph - N/A   Mostly Cloudy